Regional Weather Roundup
Issued by NWS

Home | Current Version | Previous Version | Graphics & Text | Print | Product List | Glossary On
Versions: 1 2 3 4 5 6 7 8 9 10 11 12 13 14 15 16 17 18 19 20 21 22 23 24 25 26 27 28 29 30 31 32 33 34 35 36 37 38 39 40 41 42 43 44 45 46 47 48 49 50
000
ASUS43 KDTX 251110
RWRMI
MICHIGAN HOURLY REGIONAL WEATHER ROUNDUP
NATIONAL WEATHER SERVICE DETROIT/PONTIAC MI
600 AM EST SUN JAN 25 2015

NOTE: "FAIR" INDICATES FEW OR NO CLOUDS BELOW 12,000 FEET WITH NO
SIGNIFICANT WEATHER AND/OR OBSTRUCTION TO VISIBILITY.

MIZ047>049-052>055-059>063-066>070-074>076-081>083-251200-
SOUTHEAST LOWER MICHIGAN

CITY           SKY/WX    TMP DP  RH WIND       PRES   REMARKS
ADRIAN         CLOUDY    33  31  92 NE5       29.73R FOG
ALMA           CLOUDY    24  17  74 NE13      29.82R
ANN ARBOR      CLOUDY    32  28  85 NE9       29.74R
BAD AXE        CLOUDY    21  14  75 N8        29.84R
DETROIT CITY   CLOUDY    29  19  66 N13       29.78R
DETROIT        CLOUDY    31  28  89 N9        29.77R
FLINT          CLOUDY    27  17  66 N14       29.80R
GROSSE ILE     CLOUDY    30  27  86 NE13      29.75R
HILLSDALE      CLOUDY    35  34  97 NE6       29.70R FOG
HOWELL         CLOUDY    28  23  84 N7        29.77R

CITY           SKY/WX    TMP DP  RH WIND       PRES   REMARKS
JACKSON        CLOUDY    32  29  88 NE9       29.73R
LAMBERTVILLE   CLOUDY    34  32  93 CALM      29.73S FOG
LANSING        CLOUDY    26  20  77 NE14      29.79R
LAPEER         NOT AVBL
MASON          CLOUDY    28  24  86 NE12      29.77R
MONROE         CLOUDY    34  32  93 CALM      29.73R FOG
MT. CLEMENS    CLOUDY    26  19  74 N16       29.78R
PONTIAC        CLOUDY    25  18  74 NE14G20     N/A
PORT HOPE        N/A     22  14  71 N8G21     29.82R
PORT HURON     CLOUDY    25  18  74 N9G20     29.80R
TRI CITIES     MOCLDY    22  13  68 NE15      29.85R
YPSILANTI      CLOUDY    35  28  75 NE12      29.75R
$$
MIZ043>046-050>051-056>058-064>065-071>073-077>080-251200-
SOUTHWEST LOWER MICHIGAN

CITY           SKY/WX    TMP DP  RH WIND       PRES   REMARKS
BATTLE CREEK   CLOUDY    34  29  82 NE9       29.73R
BENTON HARBOR  CLOUDY    34  33  96 NE5       29.70S FOG
BIG RAPIDS     MOCLDY    19  14  80 NE7       29.82R
COLDWATER      CLOUDY    34  32  94 MISG      29.71R FOG
HOLLAND        FLURRIES  34  27  75 E9        29.75R
GRAND RAPIDS   CLOUDY    30  25  81 NE16      29.77R
KALAMAZOO      CLOUDY    34  31  88 NE12      29.72R FOG
MARSHALL       CLOUDY    32  31  94 NE5       29.72R
MUSKEGON       CLOUDY    29  20  69 NE13      29.79R
$$
MIZ016>042-251200-
NORTHERN LOWER MICHIGAN

CITY           SKY/WX    TMP DP  RH WIND       PRES   REMARKS
ALPENA         CLEAR      9   3  77 N8        29.91R
BEAVER ISLAND  CLEAR      7   2  82 CALM      29.95R
BELLAIRE       CLEAR      9   3  76 N7        29.92R
CADILLAC       MOCLDY    11   7  86 N6        29.81R
CHARLEVOIX     CLEAR      8   1  70 NE9       29.95R
FRANKFORT      PTSUNNY   18  12  77 NE9G16    29.88R
GAYLORD        PTCLDY     4   2  91 N6        29.84R
GRAYLING       CLEAR      8   5  86 N6        29.85R
HARBOR SPRINGS PTCLDY     3  -3  76 N3        29.92R
HOUGHTON LAKE  PTCLDY    10   5  80 NE10      29.82R WCI  -4
MANISTEE       CLOUDY    19  10  68 NE7       29.87R
OSCODA         PTCLDY    14   8  77 N10       29.87R
PELLSTON       PTCLDY     2  -3  80 N10       29.94R WCI -14
TRAVERSE CITY  PTCLDY    14   6  70 NE14      29.89R WCI  -1
$$
MIZ007>008-015-251200-
EASTERN UPPER MICHIGAN

CITY           SKY/WX    TMP DP  RH WIND       PRES   REMARKS
KINROSS        PTCLDY    -4  -6  92 N6        29.94R
MACKINAC ISLAN PTCLDY     4  -1  79 N10       29.93R WCI -11
NEWBERRY       CLOUDY     3   1  92 N6        29.94R
S. S. MARIE    MOCLDY    -6 -11  79 W3        29.95R
$$
MIZ004>006-011>014-085-251200-
CENTRAL UPPER MICHIGAN

CITY           SKY/WX    TMP DP  RH WIND       PRES   REMARKS
MANISTIQUE     CLOUDY     8   5  86 NE5       29.94F
ESCANABA       CLOUDY    16   9  73 NE12G18   29.93R
MENOMINEE      CLOUDY    19   9  63 NE16      29.91R
SAWYER-GWINN   FLURRIES  15   8  76 NE9       29.91R
$$
MIZ001>003-009>011-084-251200-
WESTERN UPPER MICHIGAN

CITY           SKY/WX    TMP DP  RH WIND       PRES   REMARKS
IRON MOUNTAIN  CLOUDY    16   8  71 NE9       29.90R
HOUGHTON       CLOUDY    13   5  70 NE12      29.96R WCI  -1
COPPER HARBOR    N/A     15   7  70 E13G21    30.00R
IRONWOOD       CLOUDY    12   9  85 NE6       29.90R
$$

ABBREVIATIONS USED IN REMARKS
   TC - TEMPERATURE IN CELSIUS
  WCI - WIND CHILL INDEX
   HX - HEAT INDEX
  VSB - VISIBILITY




USA.gov is the U.S. government's official web portal to all federal, state and local government web resources and services.